Dewpoint
13 12 13 12 13 13 13 13 13 13 13 14 14 13 14 14 15 15 14 15 15 15 15 14 14 15 15 15 15 15 15 15 15 14 14 14 13 14 14 14 14 12 13
13 13 12 13 13 13 14 13 13 13 14 14 14 14 14 14 15 14 14 14 14 14 15 15 15 15 14 14 15 16 14 15 15 14 14 14 14 14 14 14 13 12 13
14 13 13 12 12 13 13 14 13 13 13 14 14 14 13 13 14 13 13 14 15 14 14 15 15 15 14 14 15 15 14 15 15 15 15 15 14 14 14 13 13 13 14
13 13 13 12 13 13 12 13 13 13 14 13 13 14 14 14 15 15 15 14 14 14 14 15 15 15 15 15 15 15 15 14 15 15 15 15 14 14 14 14 14 14 13
14 13 13 12 12 13 13 13 14 13 13 14 14 14 14 14 15 15 14 13 14 14 15 15 15 14 14 14 14 14 14 14 14 14 13 14 15 15 15 14 13 13 13
15 15 15 14 14 13 12 13 13 14 13 13 14 14 15 15 15 14 14 15 15 14 15 14 14 15 14 14 14 13 13 13 13 14 13 14 14 15 14 14 13 13 13
15 16 16 16 15 14 14 13 13 14 14 14 13 15 15 15 15 15 14 15 14 14 14 15 15 14 13 14 14 13 13 13 14 13 14 14 15 14 13 13 12 12 11
12 14 15 16 16 15 15 14 12 14 15 13 14 14 14 15 15 14 14 14 15 15 15 15 15 14 14 14 14 14 14 14 14 14 14 13 13 14 13 12 11 10 9
12 13 12 14 15 15 16 15 14 15 14 13 14 14 14 15 14 14 14 14 15 14 14 15 14 14 15 14 14 14 14 14 14 14 14 14 13 13 13 13 12 11 11
11 11 12 14 15 15 15 15 12 14 14 14 13 14 15 15 15 14 14 14 14 15 15 15 15 14 14 14 13 13 13 13 13 13 14 13 13 12 13 12 10 8 7
11 11 11 11 15 14 15 16 15 15 14 14 15 14 14 14 15 14 14 14 14 15 14 14 14 13 12 11 10 11 10 10 10 11 12 12 12 13 13 13 12 11 9
11 12 14 14 14 14 14 15 15 15 14 13 14 14 14 15 15 15 14 14 14 14 14 13 12 11 11 9 5 3 2 2 1 4 7 8 9 10 10 9 8 7 6
12 12 13 14 14 14 14 14 14 14 14 14 15 15 15 15 15 14 14 14 14 13 12 12 12 9 5 2 3 3 4 3 2 1 1 2 4 5 5 3 2 1 1
11 12 12 12 13 13 14 14 14 14 15 15 14 14 14 13 13 12 11 12 12 12 11 9 5 6 5 5 5 5 4 3 2 3 3 4 4 3 3 3 2 1 -0
12 11 12 12 12 11 12 12 12 12 12 13 13 12 12 11 11 11 10 10 10 6 1 1 1 1 0 1 1 1 1 2 3 3 4 4 4 4 4 3 2 1 0
11 11 10 11 12 12 12 12 12 12 12 11 11 11 11 11 10 10 7 0 -2 -4 -4 -2 -0 0 0 -0 -1 -1 -1 -0 2 4 4 5 4 4 3 2 1 1 0
10 10 11 12 11 12 12 12 12 11 11 11 11 11 10 8 2 -2 -3 -2 -1 -0 -1 -0 -0 -1 -2 -2 -1 -1 -2 -3 -4 -3 2 4 1 0 -0 1 -0 -1 -2
11 12 12 12 12 12 11 11 11 12 11 8 6 6 7 5 1 -2 -2 -2 -1 -0 -0 -0 -0 0 0 -1 -0 0 0 0 1 0 -0 0 3 2 1 2 2 0 -1
7 3 3 4 7 6 8 9 7 5 1 -0 -1 -1 -0 1 0 -1 -1 -2 -2 -0 0 1 1 1 1 1 1 1 2 2 1 1 0 0 4 4 2 2 2 1 -0
4 3 2 1 -0 -1 -1 -0 1 0 -0 -1 -2 -1 -1 -2 -1 0 0 -0 -0 -0 0 1 1 1 1 2 2 2 2 1 0 0 2 3 4 3 1 2 3 2 -0
4 4 3 3 3 3 2 3 2 0 0 1 1 1 1 1 1 1 1 1 1 1 1 1 1 2 2 2 1 -0 -3 -3 -4 -1 2 3 3 3 1 1 2 0 -0
5 6 5 5 5 4 4 4 4 4 1 0 0 1 0 0 0 0 0 1 1 1 1 1 2 2 1 -1 -3 -4 -5 -5 -4 -3 0 2 1 1 1 2 -0 -1 -1
7 5 5 5 5 4 3 3 4 4 3 1 1 1 1 1 1 1 1 1 2 2 2 2 1 -1 -2 -2 -2 -3 -2 -3 -3 -2 1 1 1 1 1 -1 -1 -0 0
-0 4 1 2 4 3 2 2 1 1 1 1 1 1 1 1 1 2 2 2 2 2 1 -1 -2 -2 -1 -1 -2 -2 -2 -3 -4 -2 1 2 1 2 1 1 0 0 -0
-1 -1 -3 -3 -2 -1 -0 1 1 1 1 1 1 1 1 2 2 2 2 1 -3 -5 -3 -2 -1 -1 -2 -2 -2 -3 -3 -3 -2 0 1 1 1 0 0 0 -0 0 -1
-0 -2 -3 -1 -0 1 1 1 1 0 0 0 -0 -0 0 -0 -1 -4 -6 -7 -5 -3 -1 -2 -1 -2 -3 -3 -3 -3 -3 -1 -0 1 1 0 0 0 0 -0 -0 -0 -1
Wind_Speed
40 36 33 33 33 32 31 28 29 24 22 22 20 21 20 19 18 19 18 17 19 19 18 18 17 17 16 17 18 17 16 18 20 19 19 16 17 17 19 18 18 17 16
31 40 33 34 35 34 35 33 30 29 25 23 23 21 22 20 18 19 19 18 20 21 19 19 20 18 18 19 19 18 18 17 18 20 19 18 17 16 17 18 18 17 15
30 37 40 35 37 36 38 37 35 31 30 28 28 27 25 23 20 20 22 21 21 21 20 20 21 18 19 17 18 18 18 19 19 20 20 18 19 18 17 17 17 16 15
34 25 40 41 36 36 36 39 38 37 34 31 30 28 26 23 22 21 23 22 21 20 19 20 18 15 17 15 15 15 16 16 18 19 20 21 20 18 18 18 16 14 13
33 37 42 39 32 38 36 36 37 38 38 36 33 30 27 24 22 21 22 22 20 18 16 16 14 14 12 12 13 13 15 16 18 19 19 20 19 16 16 14 16 16 15
32 35 35 43 38 37 40 38 39 38 37 38 36 32 28 26 24 22 22 21 18 17 17 16 14 14 13 14 15 17 18 20 20 19 18 17 16 15 13 13 13 14 14
24 30 34 38 41 48 45 39 42 40 39 39 39 35 31 28 27 24 22 20 17 16 16 16 15 15 15 15 17 19 18 17 16 16 15 14 12 11 11 11 10 10 11
21 26 27 33 37 39 44 41 40 39 39 38 38 37 34 31 29 25 21 20 18 17 17 18 16 16 16 16 16 17 16 15 14 13 13 11 9 9 8 7 7 7 7
18 23 28 29 32 37 45 46 37 37 35 37 35 34 32 30 29 24 22 21 20 21 21 16 15 15 14 16 16 16 15 14 12 10 10 10 11 10 7 8 10 11 9
22 23 24 30 34 34 36 37 37 37 39 37 36 31 31 31 30 26 25 23 22 17 14 14 12 13 12 8 1 4 5 6 7 6 6 3 6 9 8 8 8 8 9
24 28 30 31 35 36 34 45 39 36 34 36 39 34 32 30 27 25 23 19 13 11 11 11 7 4 3 2 4 5 4 5 6 5 5 5 6 6 7 7 8 9 9
20 23 15 12 28 27 27 31 35 33 32 30 38 36 29 25 21 17 14 12 10 9 8 8 4 5 2 4 4 3 5 5 6 6 6 6 6 5 5 6 7 9 10
23 20 8 14 19 20 17 14 24 30 35 36 35 31 25 19 16 15 16 17 17 18 15 8 6 4 7 6 7 7 7 8 10 8 8 8 7 7 8 8 9 10 11
20 24 22 4 13 19 19 14 25 28 31 36 32 28 25 21 20 21 21 22 20 17 14 10 12 9 5 4 3 3 4 5 7 8 8 9 9 9 10 10 11 13 13
16 19 22 25 26 21 20 17 18 26 30 33 37 35 34 27 23 21 14 14 13 16 11 11 11 9 7 6 6 6 6 7 6 6 7 7 7 7 10 12 15 17 15
14 15 18 20 23 27 29 33 32 36 31 31 32 30 28 21 19 17 15 16 16 16 15 14 13 11 9 7 5 5 5 5 5 5 5 6 7 9 11 13 16 15 15
5 7 11 10 14 18 24 28 31 29 26 24 22 23 20 19 18 16 17 16 14 11 10 12 10 8 9 9 10 9 10 11 10 7 6 6 9 11 12 14 14 15 16
1 7 9 8 9 13 16 20 21 22 25 26 23 20 17 17 16 15 14 14 14 12 12 11 9 9 9 8 9 9 10 11 9 10 10 9 9 11 14 14 14 14 16
16 18 17 16 17 19 21 22 20 21 22 23 21 20 19 19 18 17 16 13 13 12 10 8 6 5 5 6 6 7 7 9 10 10 10 8 8 10 12 13 13 13 14
17 16 16 15 16 17 19 22 24 23 21 19 19 18 18 17 17 15 13 11 9 8 6 5 4 3 4 5 7 10 12 15 17 13 10 9 9 12 14 14 13 14 12
14 14 14 15 16 16 17 18 18 17 16 16 17 17 14 12 10 10 7 5 5 4 2 1 2 4 7 10 14 17 16 12 11 10 10 11 14 16 17 14 11 10 12
11 11 12 11 10 12 12 12 13 12 12 12 12 11 9 7 7 8 5 4 3 2 1 3 6 10 14 15 12 8 9 9 9 10 11 13 13 11 10 6 6 7 7
10 8 10 10 9 10 9 8 9 11 11 11 9 6 5 5 8 7 6 5 3 3 7 10 13 13 11 8 9 9 8 9 10 10 10 11 10 8 6 5 6 9 13
6 10 9 8 9 9 10 11 11 11 11 12 10 9 8 9 9 8 5 4 6 9 12 11 8 8 8 8 9 10 11 11 10 9 9 9 7 5 5 7 9 13 19
12 13 11 9 10 11 13 13 12 13 11 10 9 10 10 9 7 6 7 9 9 6 5 6 7 7 8 10 11 11 10 10 7 6 7 6 4 4 8 12 15 12 13
18 15 12 9 10 10 14 16 14 12 10 9 8 9 9 9 8 7 5 3 2 1 2 4 6 7 8 10 12 12 10 7 6 4 3 3 6 8 10 11 6 6 5
Wind_Direction
244 243 244 245 244 243 241 242 237 235 229 228 233 235 241 245 252 261 258 261 271 272 270 273 272 275 276 281 282 285 291 293 291 299 301 302 299 296 296 300 304 307 307
251 246 243 246 245 248 247 245 243 238 238 242 238 235 238 241 250 256 258 264 270 270 268 269 272 276 272 276 279 281 290 291 289 295 300 303 300 301 297 299 301 305 307
238 241 243 256 253 249 253 252 245 244 244 243 241 242 244 245 249 254 263 269 268 269 268 267 270 271 272 273 276 283 290 288 287 286 293 296 298 299 295 295 298 300 301
243 238 237 244 264 259 253 253 252 246 246 244 243 244 246 247 251 258 263 265 267 268 269 269 270 270 269 275 278 283 287 291 289 290 291 293 295 296 294 295 293 292 294
237 237 239 248 242 249 251 255 257 251 248 247 246 246 245 244 252 260 265 263 267 265 267 264 266 268 276 280 282 284 289 291 292 291 290 293 294 297 297 296 297 296 296
243 245 248 248 242 239 251 250 251 253 248 244 245 241 241 247 251 258 263 258 256 251 252 258 260 268 276 285 285 287 290 292 292 293 293 290 289 287 285 289 295 300 307
248 248 248 241 237 243 245 245 238 244 248 242 238 238 241 246 248 254 255 250 253 254 254 254 256 265 278 281 287 292 292 290 289 290 291 290 291 287 283 286 294 300 305
267 256 253 257 253 249 239 238 248 240 244 241 236 238 243 246 244 248 248 248 249 253 254 248 255 270 281 290 295 291 287 284 282 282 281 279 279 283 289 297 306 308 314
299 277 266 255 258 254 248 243 244 234 240 237 234 235 236 238 239 244 242 244 249 251 251 251 263 274 282 296 292 287 281 275 277 273 279 289 281 277 276 289 304 320 328
306 293 280 254 244 253 249 244 243 234 235 235 232 229 230 237 240 240 240 243 250 252 259 255 260 277 278 275 304 9 339 319 319 318 295 335 11 354 345 3 8 3 5
311 302 298 258 234 235 240 234 228 225 230 240 231 227 227 231 231 236 243 247 235 222 251 257 211 148 117 90 72 11 0 334 346 355 346 329 321 327 336 331 326 331 347
337 328 322 244 225 229 236 237 221 223 232 239 222 218 215 218 229 233 216 207 205 217 194 164 137 152 151 66 57 44 31 27 24 22 26 34 37 28 15 8 5 359 351
36 24 346 224 225 222 213 211 220 231 231 225 208 199 185 188 204 201 195 182 173 157 148 159 134 103 75 94 100 87 75 63 60 61 61 55 49 37 22 9 1 355 348
52 50 58 81 177 174 195 207 207 209 208 195 177 168 160 157 152 136 129 141 131 136 128 121 108 115 110 135 120 108 60 47 48 51 51 46 40 30 15 7 3 353 346
61 65 65 74 81 99 117 130 165 171 169 159 144 130 125 121 125 113 109 89 94 88 119 134 126 127 123 112 99 82 60 50 47 45 46 32 21 9 1 359 351 346 344
78 69 78 82 85 89 88 92 99 104 106 109 110 115 122 119 114 115 105 97 115 121 126 122 122 123 115 99 73 53 43 36 37 29 18 9 1 355 350 346 344 345 345
65 44 130 100 98 100 106 112 115 115 117 112 112 115 117 116 109 114 121 127 126 128 131 129 123 105 86 75 68 58 46 41 36 25 3 354 351 352 357 1 352 348 349
186 116 138 116 109 113 122 120 121 121 123 121 119 119 119 112 118 138 143 143 132 131 123 116 101 78 65 59 38 25 17 13 7 8 6 352 345 356 359 347 346 339 342
115 115 114 110 109 111 115 121 122 118 114 115 122 126 130 132 131 127 123 126 125 117 102 86 81 67 36 12 354 344 339 338 335 329 329 337 325 326 333 329 319 327 333
117 117 117 116 115 117 119 121 123 122 122 122 126 127 129 132 131 126 121 109 100 100 103 86 67 23 343 334 330 327 318 312 312 306 295 294 295 305 314 314 312 318 317
129 127 120 121 121 120 122 129 129 130 125 124 126 123 123 122 128 131 129 123 124 130 114 70 16 340 325 320 315 313 315 317 317 311 303 302 303 302 303 305 317 316 309
147 146 145 143 150 149 145 147 151 150 144 141 139 136 124 120 132 143 146 145 161 180 269 307 316 314 313 318 321 323 322 317 310 303 298 295 298 300 305 315 330 317 312
175 177 183 194 182 174 177 184 183 178 178 178 180 182 174 171 171 174 175 181 200 288 311 313 313 316 318 321 319 319 325 319 310 300 286 285 289 301 338 315 301 308 320
196 195 191 182 183 199 202 192 189 190 187 193 199 205 205 194 190 190 200 243 286 297 303 313 326 326 323 323 324 324 320 319 309 298 289 285 288 297 320 305 310 320 321
213 207 224 228 223 219 205 191 185 186 189 198 204 211 209 205 211 235 266 286 299 308 320 327 330 335 331 325 324 324 321 319 316 292 285 288 299 316 313 315 319 331 342
218 218 218 212 207 186 185 183 181 184 193 201 216 224 228 237 250 262 268 284 294 292 328 324 325 334 331 326 324 329 333 334 327 294 253 290 303 306 313 319 340 352 331
Height
1532 1535 1538 1541 1545 1549 1552 1554 1556 1559 1561 1562 1563 1565 1567 1570 1571 1572 1573 1575 1575 1575 1575 1575 1575 1574 1574 1574 1574 1574 1573 1572 1569 1567 1566 1565 1564 1564 1563 1561 1559 1558 1556
1524 1528 1533 1536 1539 1543 1547 1550 1552 1554 1557 1558 1560 1561 1563 1565 1567 1568 1569 1571 1571 1571 1571 1571 1571 1571 1571 1570 1570 1570 1569 1568 1566 1564 1563 1562 1561 1560 1559 1558 1556 1555 1554
1520 1523 1528 1530 1532 1535 1540 1544 1548 1550 1552 1554 1556 1557 1558 1560 1562 1563 1564 1565 1566 1566 1566 1566 1567 1567 1567 1566 1566 1566 1565 1564 1562 1560 1559 1559 1558 1557 1556 1554 1553 1552 1551
1513 1516 1521 1524 1525 1527 1531 1536 1541 1544 1547 1549 1550 1552 1554 1556 1557 1559 1559 1560 1560 1561 1561 1561 1562 1563 1564 1562 1562 1561 1561 1560 1559 1558 1557 1556 1555 1554 1552 1551 1550 1549 1548
1508 1510 1511 1512 1518 1521 1524 1527 1532 1536 1540 1543 1545 1546 1548 1550 1551 1553 1554 1555 1555 1556 1556 1558 1555 1560 1559 1559 1558 1558 1557 1556 1555 1554 1553 1552 1551 1551 1550 1548 1548 1547 1546
1502 1505 1507 1510 1511 1512 1514 1517 1522 1527 1532 1535 1537 1540 1542 1544 1546 1548 1549 1550 1551 1552 1553 1553 1553 1555 1556 1556 1556 1555 1554 1552 1551 1550 1549 1547 1546 1546 1546 1545 1545 1544 1543
1496 1499 1500 1502 1505 1507 1508 1507 1509 1516 1523 1526 1530 1534 1536 1538 1540 1543 1544 1546 1547 1548 1550 1551 1551 1551 1552 1552 1552 1551 1549 1548 1547 1547 1546 1545 1544 1544 1544 1543 1542 1542 1542
1489 1489 1490 1491 1492 1494 1497 1499 1502 1508 1514 1518 1522 1526 1529 1532 1534 1537 1540 1542 1542 1544 1545 1546 1547 1547 1548 1547 1547 1547 1546 1545 1544 1543 1543 1542 1542 1542 1542 1541 1540 1540 1540
1481 1480 1480 1480 1481 1484 1486 1490 1494 1499 1505 1511 1514 1518 1522 1525 1528 1531 1534 1536 1537 1539 1540 1542 1542 1544 1543 1542 1543 1544 1543 1542 1541 1540 1540 1539 1538 1539 1538 1537 1537 1537 1535
1475 1472 1469 1469 1470 1471 1474 1479 1483 1484 1496 1502 1507 1510 1515 1519 1522 1525 1527 1531 1532 1534 1537 1538 1538 1539 1538 1538 1540 1540 1541 1540 1540 1538 1538 1537 1538 1538 1538 1537 1537 1537 1537
1467 1460 1454 1452 1457 1463 1467 1471 1478 1481 1489 1493 1499 1503 1507 1512 1515 1519 1522 1525 1528 1530 1532 1534 1535 1536 1537 1538 1538 1539 1539 1540 1538 1538 1537 1537 1537 1537 1537 1536 1536 1535 1535
1463 1453 1445 1442 1449 1454 1460 1463 1463 1473 1482 1487 1491 1496 1501 1506 1510 1513 1518 1521 1524 1528 1530 1533 1534 1534 1537 1535 1536 1540 1540 1540 1538 1538 1538 1537 1537 1538 1536 1535 1535 1534 1534
1465 1454 1447 1444 1446 1450 1454 1457 1461 1468 1474 1479 1484 1488 1494 1500 1506 1510 1513 1518 1521 1524 1527 1531 1529 1536 1538 1538 1538 1540 1540 1539 1538 1538 1538 1538 1537 1537 1536 1535 1534 1533 1533
1470 1463 1456 1451 1448 1448 1452 1455 1458 1463 1468 1474 1475 1483 1490 1496 1503 1510 1513 1513 1515 1521 1525 1531 1529 1536 1541 1541 1540 1540 1539 1538 1538 1538 1538 1538 1537 1537 1537 1536 1534 1532 1531
1478 1474 1470 1464 1460 1457 1454 1455 1460 1462 1467 1471 1469 1477 1489 1499 1504 1505 1516 1515 1519 1520 1531 1534 1532 1536 1539 1542 1540 1539 1539 1538 1538 1539 1539 1538 1538 1537 1536 1534 1533 1531 1529
1482 1482 1479 1476 1474 1469 1468 1467 1472 1474 1481 1483 1485 1488 1494 1504 1506 1509 1515 1520 1526 1528 1534 1534 1536 1538 1539 1540 1540 1540 1539 1539 1539 1538 1538 1538 1538 1536 1535 1533 1532 1530 1528
1485 1484 1485 1483 1481 1481 1480 1480 1480 1486 1489 1492 1495 1496 1500 1506 1514 1518 1521 1524 1528 1532 1534 1536 1537 1538 1537 1538 1540 1540 1540 1539 1538 1537 1537 1536 1536 1535 1533 1532 1531 1529 1527
1486 1486 1485 1486 1487 1488 1487 1490 1493 1494 1496 1499 1502 1504 1506 1512 1518 1522 1525 1526 1529 1533 1535 1536 1538 1538 1538 1538 1539 1541 1540 1539 1539 1537 1537 1536 1534 1533 1533 1532 1529 1528 1526
1488 1490 1491 1491 1493 1493 1494 1496 1500 1501 1504 1506 1509 1512 1515 1519 1522 1525 1527 1529 1530 1532 1534 1536 1539 1539 1539 1539 1540 1540 1539 1538 1537 1535 1535 1533 1533 1532 1531 1530 1529 1526 1525
1493 1495 1496 1497 1499 1500 1501 1502 1504 1506 1508 1510 1512 1516 1519 1521 1524 1526 1529 1531 1532 1534 1536 1538 1538 1539 1539 1539 1538 1537 1536 1536 1535 1533 1532 1531 1529 1528 1528 1526 1525 1524 1523
1498 1499 1500 1502 1504 1505 1507 1508 1509 1510 1513 1514 1516 1517 1521 1522 1525 1527 1530 1533 1534 1535 1537 1538 1538 1537 1537 1535 1535 1533 1533 1531 1530 1529 1529 1528 1527 1527 1525 1524 1522 1521 1522
1501 1502 1504 1506 1507 1509 1511 1512 1513 1514 1515 1517 1519 1520 1522 1525 1528 1529 1531 1532 1534 1535 1536 1536 1536 1534 1534 1532 1531 1529 1528 1528 1527 1526 1526 1526 1525 1525 1523 1520 1519 1519 1519
1502 1504 1506 1507 1509 1510 1511 1513 1515 1516 1517 1520 1521 1522 1524 1526 1528 1529 1530 1532 1533 1534 1534 1534 1534 1532 1531 1529 1529 1529 1526 1526 1524 1522 1521 1522 1522 1522 1520 1519 1518 1518 1516
1502 1503 1505 1507 1508 1510 1512 1513 1515 1517 1518 1520 1522 1524 1526 1527 1528 1529 1529 1530 1531 1531 1531 1530 1531 1530 1528 1526 1526 1525 1525 1522 1520 1520 1520 1519 1518 1518 1518 1520 1518 1515 1513
1501 1503 1504 1505 1507 1509 1511 1513 1514 1516 1518 1520 1522 1525 1524 1524 1525 1526 1526 1527 1527 1527 1528 1528 1527 1527 1526 1525 1524 1521 1519 1519 1518 1518 1519 1518 1517 1516 1517 1517 1516 1513 1510
1499 1501 1503 1504 1506 1508 1510 1512 1514 1516 1518 1520 1521 1522 1522 1522 1522 1523 1524 1524 1525 1526 1525 1526 1526 1525 1524 1524 1523 1518 1515 1516 1516 1516 1517 1516 1515 1516 1516 1515 1512 1511 1511